Time,TemperatureF,DewpointF,PressureIn,WindDirection,WindDirectionDegrees,WindSpeedMPH,WindSpeedGustMPH,Humidity,HourlyPrecipIn,Conditions,Clouds,dailyrainin,SoftwareType,DateUTC
2013-04-29 00:01:00,55.4,37.1,30.17,East,79,1.2,1.2,50,0.00,CLR,CLR,0.00,WeatherDisplay:10.36,2013-04-29 04:01:00,
2013-04-29 00:02:00,55.6,37.2,30.17,East,79,1.0,0.0,50,0.00,CLR,CLR,0.00,WeatherDisplay:10.36,2013-04-29 04:02:00,
2013-04-29 00:05:00,55.7,37.3,30.17,East,79,0.0,1.0,50,0.00,CLR,CLR,0.00,WeatherDisplay:10.36,2013-04-29 04:05:00,
2013-04-29 00:10:00,55.9,38.0,30.17,East,79,0.0,2.0,51,0.00,CLR,CLR,0.00,WeatherDisplay:10.36,2013-04-29 04:10:00,
2013-04-29 00:15:00,56.0,38.1,30.17,East,81,0.0,2.0,51,0.00,CLR,CLR,0.00,WeatherDisplay:10.36,2013-04-29 04:15:00,
2013-04-29 00:20:00,56.0,38.1,30.16,East,98,2.0,3.0,51,0.00,CLR,CLR,0.00,WeatherDisplay:10.36,2013-04-29 04:20:00,
2013-04-29 00:25:00,56.0,38.1,30.16,SE,128,0.0,1.0,51,0.00,CLR,CLR,0.00,WeatherDisplay:10.36,2013-04-29 04:25:00,
2013-04-29 00:30:00,56.0,38.1,30.16,SE,143,0.0,2.0,51,0.00,CLR,CLR,0.00,WeatherDisplay:10.36,2013-04-29 04:30:00,
2013-04-29 00:35:00,56.0,38.1,30.16,SE,143,0.0,0.0,51,0.00,CLR,CLR,0.00,WeatherDisplay:10.36,2013-04-29 04:35:00,
2013-04-29 00:40:00,56.0,38.6,30.16,SE,143,1.2,0.0,52,0.00,CLR,CLR,0.00,WeatherDisplay:10.36,2013-04-29 04:40:00,
2013-04-29 00:45:00,56.0,38.6,30.16,SE,143,0.0,0.0,52,0.00,CLR,CLR,0.00,WeatherDisplay:10.36,2013-04-29 04:45:00,
2013-04-29 00:51:00,55.9,38.5,30.16,SE,143,0.0,0.0,52,0.00,CLR,CLR,0.00,WeatherDisplay:10.36,2013-04-29 04:51:00,
2013-04-29 00:56:00,55.9,39.0,30.16,SE,143,0.0,0.0,53,0.00,CLR,CLR,0.00,WeatherDisplay:10.36,2013-04-29 04:56:00,
2013-04-29 01:01:00,55.7,38.8,30.16,SE,143,0.0,0.0,53,0.00,CLR,CLR,0.00,WeatherDisplay:10.36,2013-04-29 05:01:00,
2013-04-29 01:06:00,55.7,39.3,30.15,SE,143,0.0,0.0,54,0.00,CLR,CLR,0.00,WeatherDisplay:10.36,2013-04-29 05:06:00,
2013-04-29 01:11:00,55.7,39.3,30.15,SE,143,0.0,0.0,54,0.00,CLR,CLR,0.00,WeatherDisplay:10.36,2013-04-29 05:11:00,
2013-04-29 01:16:00,55.7,39.3,30.15,SE,143,0.0,0.0,54,0.00,CLR,CLR,0.00,WeatherDisplay:10.36,2013-04-29 05:16:00,
2013-04-29 01:21:00,55.7,39.3,30.15,SE,143,0.0,0.0,54,0.00,CLR,CLR,0.00,WeatherDisplay:10.36,2013-04-29 05:21:00,
2013-04-29 01:26:00,55.6,39.2,30.15,SE,143,0.0,0.0,54,0.00,CLR,CLR,0.00,WeatherDisplay:10.36,2013-04-29 05:26:00,
2013-04-29 01:32:00,55.6,39.2,30.15,SE,143,0.0,0.0,54,0.00,CLR,CLR,0.00,WeatherDisplay:10.36,2013-04-29 05:32:00,
2013-04-29 01:37:00,55.4,38.5,30.15,SE,143,0.0,0.0,53,0.00,CLR,CLR,0.00,WeatherDisplay:10.36,2013-04-29 05:37:00,
2013-04-29 01:42:00,55.4,38.1,30.15,SE,143,0.0,0.0,52,0.00,CLR,CLR,0.00,WeatherDisplay:10.36,2013-04-29 05:42:00,
2013-04-29 01:47:00,55.3,37.5,30.15,SE,143,0.0,0.0,51,0.00,CLR,CLR,0.00,WeatherDisplay:10.36,2013-04-29 05:47:00,
2013-04-29 01:52:00,55.3,38.0,30.15,SE,143,0.0,0.0,52,0.00,CLR,CLR,0.00,WeatherDisplay:10.36,2013-04-29 05:52:00,
2013-04-29 01:57:00,55.3,38.9,30.15,SE,143,0.0,0.0,54,0.00,CLR,CLR,0.00,WeatherDisplay:10.36,2013-04-29 05:57:00,
2013-04-29 02:12:00,55.1,39.2,30.15,SE,143,0.0,0.0,55,0.00,CLR,CLR,0.00,WeatherDisplay:10.36,2013-04-29 06:12:00,
2013-04-29 02:17:00,55.1,39.7,30.15,SE,143,0.0,0.0,56,0.00,CLR,CLR,0.00,WeatherDisplay:10.36,2013-04-29 06:17:00,
2013-04-29 02:22:00,55.0,41.4,30.15,SE,143,0.0,0.0,60,0.00,CLR,CLR,0.00,WeatherDisplay:10.36,2013-04-29 06:22:00,
2013-04-29 02:27:00,54.7,40.6,30.14,SE,143,0.0,0.0,59,0.00,CLR,CLR,0.00,WeatherDisplay:10.36,2013-04-29 06:27:00,
2013-04-29 02:32:00,54.5,40.9,30.14,SE,143,0.0,0.0,60,0.00,CLR,CLR,0.00,WeatherDisplay:10.36,2013-04-29 06:32:00,
2013-04-29 02:37:00,54.5,40.9,30.14,SE,143,0.0,0.0,60,0.00,CLR,CLR,0.00,WeatherDisplay:10.36,2013-04-29 06:37:00,
2013-04-29 02:42:00,54.4,41.6,30.14,SE,143,0.0,0.0,62,0.00,CLR,CLR,0.00,WeatherDisplay:10.36,2013-04-29 06:42:00,
2013-04-29 02:47:00,54.2,41.5,30.14,SE,143,0.0,0.0,62,0.00,CLR,CLR,0.00,WeatherDisplay:10.36,2013-04-29 06:47:00,
2013-04-29 02:53:00,54.2,41.9,30.14,SE,143,0.0,0.0,63,0.00,CLR,CLR,0.00,WeatherDisplay:10.36,2013-04-29 06:53:00,
2013-04-29 02:58:00,54.1,41.8,30.13,SE,143,0.0,0.0,63,0.00,CLR,CLR,0.00,WeatherDisplay:10.36,2013-04-29 06:58:00,
2013-04-29 03:03:00,53.9,42.0,30.13,SE,143,0.0,0.0,64,0.00,CLR,CLR,0.00,WeatherDisplay:10.36,2013-04-29 07:03:00,
2013-04-29 03:08:00,53.9,42.4,30.13,SE,143,0.0,0.0,65,0.00,CLR,CLR,0.00,WeatherDisplay:10.36,2013-04-29 07:08:00,
2013-04-29 03:13:00,53.9,42.4,30.13,SE,143,0.0,0.0,65,0.00,CLR,CLR,0.00,WeatherDisplay:10.36,2013-04-29 07:13:00,
2013-04-29 03:18:00,53.8,42.3,30.13,SE,143,0.0,0.0,65,0.00,CLR,CLR,0.00,WeatherDisplay:10.36,2013-04-29 07:18:00,
2013-04-29 03:23:00,53.8,42.3,30.12,SE,143,0.0,0.0,65,0.00,CLR,CLR,0.00,WeatherDisplay:10.36,2013-04-29 07:23:00,
2013-04-29 03:28:00,53.6,42.1,30.12,SE,143,0.0,0.0,65,0.00,CLR,CLR,0.00,WeatherDisplay:10.36,2013-04-29 07:28:00,
2013-04-29 03:33:00,53.6,42.1,30.13,SE,143,0.0,0.0,65,0.00,CLR,CLR,0.00,WeatherDisplay:10.36,2013-04-29 07:33:00,
2013-04-29 03:38:00,53.6,42.1,30.13,SE,143,0.0,0.0,65,0.00,CLR,CLR,0.00,WeatherDisplay:10.36,2013-04-29 07:38:00,
2013-04-29 03:43:00,53.6,42.5,30.13,SE,143,0.0,0.0,66,0.00,CLR,CLR,0.00,WeatherDisplay:10.36,2013-04-29 07:43:00,
2013-04-29 03:49:00,53.6,42.5,30.13,SE,143,0.0,0.0,66,0.00,CLR,CLR,0.00,WeatherDisplay:10.36,2013-04-29 07:49:00,
2013-04-29 03:54:00,53.6,42.5,30.13,SE,143,0.0,0.0,66,0.00,CLR,CLR,0.00,WeatherDisplay:10.36,2013-04-29 07:54:00,
2013-04-29 03:59:00,53.5,42.4,30.14,SE,143,0.0,0.0,66,0.00,CLR,CLR,0.00,WeatherDisplay:10.36,2013-04-29 07:59:00,
2013-04-29 04:04:00,53.5,42.4,30.13,SE,143,0.0,0.0,66,0.00,CLR,CLR,0.00,WeatherDisplay:10.36,2013-04-29 08:04:00,
2013-04-29 04:09:00,53.5,42.4,30.13,SE,143,0.0,0.0,66,0.00,CLR,CLR,0.00,WeatherDisplay:10.36,2013-04-29 08:09:00,
2013-04-29 04:14:00,53.5,42.4,30.13,SE,143,0.0,0.0,66,0.00,CLR,CLR,0.00,WeatherDisplay:10.36,2013-04-29 08:14:00,
2013-04-29 04:19:00,53.5,42.8,30.13,SE,143,0.0,0.0,67,0.00,CLR,CLR,0.00,WeatherDisplay:10.36,2013-04-29 08:19:00,
2013-04-29 04:24:00,53.5,42.8,30.13,SE,143,0.0,0.0,67,0.00,CLR,CLR,0.00,WeatherDisplay:10.36,2013-04-29 08:24:00,
2013-04-29 04:29:00,53.5,42.8,30.13,SE,143,0.0,0.0,67,0.00,CLR,CLR,0.00,WeatherDisplay:10.36,2013-04-29 08:29:00,
2013-04-29 04:34:00,53.5,43.6,30.13,SE,143,0.0,0.0,69,0.00,CLR,CLR,0.00,WeatherDisplay:10.36,2013-04-29 08:34:00,
2013-04-29 04:39:00,53.3,43.8,30.13,SE,143,0.0,0.0,70,0.00,CLR,CLR,0.00,WeatherDisplay:10.36,2013-04-29 08:39:00,
2013-04-29 04:44:00,53.3,44.1,30.13,SE,143,0.0,0.0,71,0.00,CLR,CLR,0.00,WeatherDisplay:10.36,2013-04-29 08:44:00,
2013-04-29 04:49:00,53.3,44.5,30.13,SE,143,0.0,0.0,72,0.00,CLR,CLR,0.00,WeatherDisplay:10.36,2013-04-29 08:49:00,
2013-04-29 04:54:00,53.3,44.9,30.13,SE,143,0.0,0.0,73,0.00,CLR,CLR,0.00,WeatherDisplay:10.36,2013-04-29 08:54:00,
2013-04-29 05:00:00,53.3,45.2,30.13,SE,143,0.0,0.0,74,0.00,CLR,CLR,0.00,WeatherDisplay:10.36,2013-04-29 09:00:00,
2013-04-29 05:05:00,53.2,45.5,30.13,SE,143,0.0,0.0,75,0.00,CLR,CLR,0.00,WeatherDisplay:10.36,2013-04-29 09:05:00,
2013-04-29 05:10:00,53.2,45.8,30.13,SE,143,0.0,0.0,76,0.00,CLR,CLR,0.00,WeatherDisplay:10.36,2013-04-29 09:10:00,
2013-04-29 05:15:00,53.1,46.1,30.13,SE,143,0.0,0.0,77,0.00,CLR,CLR,0.00,WeatherDisplay:10.36,2013-04-29 09:15:00,
2013-04-29 05:20:00,52.9,46.2,30.13,SE,143,0.0,0.0,78,0.00,CLR,CLR,0.00,WeatherDisplay:10.36,2013-04-29 09:20:00,
2013-04-29 05:25:00,52.9,46.6,30.13,SE,143,0.0,0.0,79,0.00,CLR,CLR,0.00,WeatherDisplay:10.36,2013-04-29 09:25:00,
2013-04-29 05:30:00,52.8,47.1,30.13,SE,143,0.0,0.0,81,0.00,CLR,CLR,0.00,WeatherDisplay:10.36,2013-04-29 09:30:00,
2013-04-29 05:35:00,52.8,47.5,30.13,SE,143,0.0,0.0,82,0.00,CLR,CLR,0.01,WeatherDisplay:10.36,2013-04-29 09:35:00,
2013-04-29 05:40:00,52.6,47.3,30.13,SE,143,0.0,0.0,82,0.01,RA,RA,0.01,WeatherDisplay:10.36,2013-04-29 09:40:00,
2013-04-29 05:45:00,52.5,47.5,30.13,SE,143,0.0,0.0,83,0.01,RA,RA,0.01,WeatherDisplay:10.36,2013-04-29 09:45:00,
2013-04-29 05:50:00,52.3,47.6,30.13,SE,143,0.0,0.0,84,0.02,RA,RA,0.02,WeatherDisplay:10.36,2013-04-29 09:50:00,
2013-04-29 05:55:00,52.3,47.9,30.14,SE,143,0.0,0.0,85,0.02,RA,RA,0.02,WeatherDisplay:10.36,2013-04-29 09:55:00,
2013-04-29 06:00:00,52.2,48.1,30.14,SE,143,0.0,0.0,86,0.02,CLR,CLR,0.02,WeatherDisplay:10.36,2013-04-29 10:00:00,
2013-04-29 06:05:00,52.2,48.1,30.14,SE,143,0.0,0.0,86,0.02,CLR,CLR,0.02,WeatherDisplay:10.36,2013-04-29 10:05:00,
2013-04-29 06:11:00,52.0,48.3,30.14,SE,143,0.0,0.0,87,0.02,CLR,CLR,0.02,WeatherDisplay:10.36,2013-04-29 10:11:00,
2013-04-29 06:16:00,52.0,48.3,30.14,SE,143,0.0,0.0,87,0.02,CLR,CLR,0.02,WeatherDisplay:10.36,2013-04-29 10:16:00,
2013-04-29 06:21:00,52.0,48.3,30.14,SE,143,0.0,0.0,87,0.02,CLR,CLR,0.02,WeatherDisplay:10.36,2013-04-29 10:21:00,
2013-04-29 06:26:00,52.0,48.6,30.14,SE,143,0.0,0.0,88,0.02,CLR,CLR,0.02,WeatherDisplay:10.36,2013-04-29 10:26:00,
2013-04-29 06:31:00,52.0,48.6,30.14,SE,143,0.0,0.0,88,0.02,CLR,CLR,0.02,WeatherDisplay:10.36,2013-04-29 10:31:00,
2013-04-29 06:36:00,52.0,48.9,30.14,SE,143,0.0,0.0,89,0.02,CLR,CLR,0.02,WeatherDisplay:10.36,2013-04-29 10:36:00,
2013-04-29 06:41:00,52.0,48.9,30.14,SE,143,0.0,0.0,89,0.01,CLR,CLR,0.02,WeatherDisplay:10.36,2013-04-29 10:41:00,
2013-04-29 06:46:00,51.9,48.8,30.14,SE,143,0.0,0.0,89,0.01,CLR,CLR,0.02,WeatherDisplay:10.36,2013-04-29 10:46:00,
2013-04-29 06:51:00,51.9,48.8,30.14,SE,143,0.0,0.0,89,0.00,CLR,CLR,0.02,WeatherDisplay:10.36,2013-04-29 10:51:00,
2013-04-29 06:56:00,51.9,48.8,30.15,SE,143,0.0,0.0,89,0.00,CLR,CLR,0.02,WeatherDisplay:10.36,2013-04-29 10:56:00,
2013-04-29 07:01:00,51.9,48.8,30.15,SE,143,0.0,0.0,89,0.00,CLR,CLR,0.02,WeatherDisplay:10.36,2013-04-29 11:01:00,
2013-04-29 07:06:00,51.9,48.8,30.15,SE,143,0.0,0.0,89,0.00,CLR,CLR,0.02,WeatherDisplay:10.36,2013-04-29 11:06:00,
2013-04-29 07:11:00,51.9,48.8,30.15,SE,143,0.0,0.0,89,0.00,CLR,CLR,0.02,WeatherDisplay:10.36,2013-04-29 11:11:00,
2013-04-29 07:16:00,51.9,48.8,30.15,SE,143,0.0,0.0,89,0.00,CLR,CLR,0.02,WeatherDisplay:10.36,2013-04-29 11:16:00,
2013-04-29 07:22:00,52.0,48.9,30.15,SE,143,0.0,0.0,89,0.00,CLR,CLR,0.02,WeatherDisplay:10.36,2013-04-29 11:22:00,
2013-04-29 07:27:00,52.0,48.9,30.16,SE,143,0.0,0.0,89,0.00,CLR,CLR,0.02,WeatherDisplay:10.36,2013-04-29 11:27:00,
2013-04-29 07:32:00,52.0,49.2,30.15,SE,143,0.0,0.0,90,0.00,CLR,CLR,0.02,WeatherDisplay:10.36,2013-04-29 11:32:00,
2013-04-29 07:37:00,52.0,49.2,30.15,SE,143,0.0,0.0,90,0.00,CLR,CLR,0.02,WeatherDisplay:10.36,2013-04-29 11:37:00,
2013-04-29 07:42:00,52.2,49.4,30.16,SE,143,0.0,0.0,90,0.00,CLR,CLR,0.02,WeatherDisplay:10.36,2013-04-29 11:42:00,
2013-04-29 07:47:00,52.0,48.9,30.16,SE,143,0.0,0.0,89,0.00,CLR,CLR,0.02,WeatherDisplay:10.36,2013-04-29 11:47:00,
2013-04-29 07:52:00,52.2,49.1,30.16,SE,143,0.0,0.0,89,0.00,CLR,CLR,0.02,WeatherDisplay:10.36,2013-04-29 11:52:00,
2013-04-29 07:58:00,52.2,49.1,30.16,SE,143,0.0,0.0,89,0.00,CLR,CLR,0.02,WeatherDisplay:10.36,2013-04-29 11:58:00,
2013-04-29 08:03:00,52.2,49.1,30.16,SE,143,0.0,0.0,89,0.00,CLR,CLR,0.02,WeatherDisplay:10.36,2013-04-29 12:03:00,
2013-04-29 08:08:00,52.2,48.8,30.16,SE,143,0.0,0.0,88,0.00,CLR,CLR,0.02,WeatherDisplay:10.36,2013-04-29 12:08:00,
2013-04-29 08:13:00,52.2,48.8,30.16,SE,143,0.0,0.0,88,0.00,CLR,CLR,0.02,WeatherDisplay:10.36,2013-04-29 12:13:00,
2013-04-29 08:18:00,52.2,48.4,30.16,SE,143,0.0,0.0,87,0.00,CLR,CLR,0.02,WeatherDisplay:10.36,2013-04-29 12:18:00,
2013-04-29 08:23:00,52.3,48.5,30.16,SE,143,0.0,0.0,87,0.00,CLR,CLR,0.02,WeatherDisplay:10.36,2013-04-29 12:23:00,
2013-04-29 08:28:00,52.3,48.2,30.16,SE,143,0.0,0.0,86,0.00,CLR,CLR,0.02,WeatherDisplay:10.36,2013-04-29 12:28:00,
2013-04-29 08:33:00,52.3,47.9,30.16,SE,143,0.0,0.0,85,0.00,CLR,CLR,0.02,WeatherDisplay:10.36,2013-04-29 12:33:00,
2013-04-29 08:38:00,52.5,48.1,30.16,SE,143,1.0,0.0,85,0.00,CLR,CLR,0.02,WeatherDisplay:10.36,2013-04-29 12:38:00,
2013-04-29 08:43:00,52.6,47.9,30.16,SE,143,1.0,0.0,84,0.00,CLR,CLR,0.02,WeatherDisplay:10.36,2013-04-29 12:43:00,
2013-04-29 08:48:00,52.6,47.9,30.16,SE,143,0.0,0.0,84,0.00,CLR,CLR,0.02,WeatherDisplay:10.36,2013-04-29 12:48:00,
2013-04-29 08:53:00,52.8,48.1,30.16,SE,143,0.0,0.0,84,0.00,CLR,CLR,0.02,WeatherDisplay:10.36,2013-04-29 12:53:00,
2013-04-29 08:58:00,52.8,47.8,30.16,SE,143,0.0,0.0,83,0.00,CLR,CLR,0.02,WeatherDisplay:10.36,2013-04-29 12:58:00,
2013-04-29 09:03:00,52.8,47.8,30.16,SE,143,0.0,0.0,83,0.00,CLR,CLR,0.02,WeatherDisplay:10.36,2013-04-29 13:03:00,
2013-04-29 09:08:00,52.8,47.5,30.16,SE,143,0.0,0.0,82,0.00,CLR,CLR,0.02,WeatherDisplay:10.36,2013-04-29 13:08:00,
2013-04-29 09:13:00,52.9,47.6,30.16,SE,143,0.0,0.0,82,0.00,CLR,CLR,0.02,WeatherDisplay:10.36,2013-04-29 13:13:00,
2013-04-29 09:18:00,52.9,47.2,30.16,SE,143,0.0,0.0,81,0.00,CLR,CLR,0.02,WeatherDisplay:10.36,2013-04-29 13:18:00,
2013-04-29 09:23:00,52.8,46.8,30.16,SE,143,0.0,0.0,80,0.00,CLR,CLR,0.02,WeatherDisplay:10.36,2013-04-29 13:23:00,
2013-04-29 09:28:00,52.9,47.2,30.16,SE,143,0.0,0.0,81,0.00,CLR,CLR,0.02,WeatherDisplay:10.36,2013-04-29 13:28:00,
2013-04-29 09:33:00,52.8,46.8,30.16,SSE,152,0.0,0.0,80,0.01,RA,RA,0.03,WeatherDisplay:10.36,2013-04-29 13:33:00,
2013-04-29 09:38:00,52.8,46.8,30.16,SSE,153,0.0,0.0,80,0.01,RA,RA,0.03,WeatherDisplay:10.36,2013-04-29 13:38:00,
2013-04-29 09:43:00,52.8,46.8,30.16,SSE,153,1.2,1.2,80,0.01,,,0.03,WeatherDisplay:10.36,2013-04-29 13:43:00,
2013-04-29 09:48:00,52.8,46.8,30.16,SSE,153,0.0,0.0,80,0.01,CLR,CLR,0.03,WeatherDisplay:10.36,2013-04-29 13:48:00,
2013-04-29 09:53:00,52.9,46.9,30.16,SE,139,2.0,2.0,80,0.01,CLR,CLR,0.03,WeatherDisplay:10.36,2013-04-29 13:53:00,
2013-04-29 09:58:00,52.8,46.5,30.16,SE,127,0.0,0.0,79,0.01,CLR,CLR,0.03,WeatherDisplay:10.36,2013-04-29 13:58:00,
2013-04-29 10:04:00,52.9,46.9,30.16,SE,127,0.0,0.0,80,0.01,CLR,CLR,0.03,WeatherDisplay:10.36,2013-04-29 14:04:00,
2013-04-29 10:09:00,53.1,47.1,30.16,SE,127,0.0,0.0,80,0.01,CLR,CLR,0.03,WeatherDisplay:10.36,2013-04-29 14:09:00,
2013-04-29 10:14:00,53.1,46.8,30.16,SSE,160,0.0,0.0,79,0.01,CLR,CLR,0.03,WeatherDisplay:10.36,2013-04-29 14:14:00,
2013-04-29 10:19:00,53.2,46.5,30.16,SSE,160,2.3,2.3,78,0.01,CLR,CLR,0.03,WeatherDisplay:10.36,2013-04-29 14:19:00,
2013-04-29 10:24:00,53.2,46.2,30.16,ENE,65,3.5,3.5,77,0.01,CLR,CLR,0.03,WeatherDisplay:10.36,2013-04-29 14:24:00,
2013-04-29 10:29:00,53.3,45.9,30.16,ENE,65,0.0,0.0,76,0.01,CLR,CLR,0.03,WeatherDisplay:10.36,2013-04-29 14:29:00,
2013-04-29 10:34:00,53.3,46.3,30.16,ENE,65,0.0,0.0,77,0.00,CLR,CLR,0.03,WeatherDisplay:10.36,2013-04-29 14:34:00,
2013-04-29 10:39:00,53.3,46.6,30.16,SSE,155,1.2,0.0,78,0.00,CLR,CLR,0.04,WeatherDisplay:10.36,2013-04-29 14:39:00,
2013-04-29 10:44:00,53.2,46.9,30.16,SSE,155,0.0,0.0,79,0.01,RA,RA,0.04,WeatherDisplay:10.36,2013-04-29 14:44:00,
2013-04-29 10:49:00,52.9,46.9,30.15,SSE,155,0.0,0.0,80,0.01,RA,RA,0.04,WeatherDisplay:10.36,2013-04-29 14:49:00,
2013-04-29 10:55:00,52.9,47.6,30.15,SSE,155,0.0,0.0,82,0.02,RA,RA,0.05,WeatherDisplay:10.36,2013-04-29 14:55:00,
2013-04-29 11:00:00,52.8,47.8,30.16,SSE,155,0.0,0.0,83,0.02,RA,RA,0.06,WeatherDisplay:10.36,2013-04-29 15:00:00,
2013-04-29 11:05:00,52.5,47.8,30.16,SSE,155,0.0,0.0,84,0.00,RA,RA,0.06,WeatherDisplay:10.36,2013-04-29 15:05:00,
2013-04-29 11:10:00,52.3,47.6,30.16,SSE,155,0.0,0.0,84,0.00,RA,RA,0.07,WeatherDisplay:10.36,2013-04-29 15:10:00,
2013-04-29 11:15:00,52.2,47.5,30.16,SSE,155,0.0,0.0,84,0.05,RA,RA,0.08,WeatherDisplay:10.36,2013-04-29 15:15:00,
2013-04-29 11:20:00,52.0,47.6,30.16,South,181,0.0,0.0,85,0.05,RA,RA,0.08,WeatherDisplay:10.36,2013-04-29 15:20:00,
2013-04-29 11:25:00,51.9,47.8,30.16,South,180,0.0,0.0,86,0.05,,,0.08,WeatherDisplay:10.36,2013-04-29 15:25:00,
2013-04-29 11:30:00,51.9,48.2,30.16,South,181,0.0,0.0,87,0.05,CLR,CLR,0.08,WeatherDisplay:10.36,2013-04-29 15:30:00,
2013-04-29 11:35:00,51.9,48.2,30.16,South,181,0.0,0.0,87,0.05,CLR,CLR,0.08,WeatherDisplay:10.36,2013-04-29 15:35:00,
2013-04-29 11:41:00,51.7,48.0,30.16,South,181,0.0,0.0,87,0.04,CLR,CLR,0.08,WeatherDisplay:10.36,2013-04-29 15:41:00,
2013-04-29 11:46:00,51.7,47.6,30.16,South,180,0.0,0.0,86,0.05,RA,RA,0.09,WeatherDisplay:10.36,2013-04-29 15:46:00,
2013-04-29 11:51:00,51.6,47.5,30.16,SSE,162,0.0,0.0,86,0.05,RA,RA,0.09,WeatherDisplay:10.36,2013-04-29 15:51:00,
2013-04-29 11:56:00,51.6,47.5,30.15,SSE,162,0.0,0.0,86,0.04,CLR,CLR,0.09,WeatherDisplay:10.36,2013-04-29 15:56:00,
2013-04-29 12:02:00,51.7,47.6,30.15,SSE,162,0.0,0.0,86,0.03,CLR,CLR,0.09,WeatherDisplay:10.36,2013-04-29 16:02:00,
2013-04-29 12:07:00,51.7,47.6,30.15,SSE,161,0.0,0.0,86,0.02,CLR,CLR,0.09,WeatherDisplay:10.36,2013-04-29 16:07:00,
2013-04-29 12:12:00,51.7,47.3,30.15,SSE,161,0.0,0.0,85,0.02,CLR,CLR,0.09,WeatherDisplay:10.36,2013-04-29 16:12:00,
2013-04-29 12:17:00,51.9,47.8,30.15,SSE,161,0.0,0.0,86,0.01,CLR,CLR,0.09,WeatherDisplay:10.36,2013-04-29 16:17:00,
2013-04-29 12:22:00,51.9,47.8,30.15,SSE,161,0.0,0.0,86,0.01,CLR,CLR,0.09,WeatherDisplay:10.36,2013-04-29 16:22:00,
2013-04-29 12:27:00,51.7,47.6,30.15,SSE,161,0.0,0.0,86,0.02,RA,RA,0.10,WeatherDisplay:10.36,2013-04-29 16:27:00,
2013-04-29 12:32:00,51.7,47.6,30.15,SSE,162,0.0,0.0,86,0.02,RA,RA,0.10,WeatherDisplay:10.36,2013-04-29 16:32:00,
2013-04-29 12:37:00,51.9,47.8,30.15,SSE,161,0.0,0.0,86,0.02,,,0.10,WeatherDisplay:10.36,2013-04-29 16:37:00,
2013-04-29 12:42:00,51.9,47.8,30.15,SSE,161,0.0,0.0,86,0.01,CLR,CLR,0.10,WeatherDisplay:10.36,2013-04-29 16:42:00,
2013-04-29 12:47:00,52.0,47.9,30.15,SSE,161,0.0,0.0,86,0.02,RA,RA,0.11,WeatherDisplay:10.36,2013-04-29 16:47:00,
2013-04-29 12:52:00,52.0,48.3,30.15,SSE,161,0.0,0.0,87,0.02,RA,RA,0.11,WeatherDisplay:10.36,2013-04-29 16:52:00,
2013-04-29 12:58:00,51.9,47.8,30.15,SSE,162,0.0,0.0,86,0.02,CLR,CLR,0.11,WeatherDisplay:10.36,2013-04-29 16:58:00,
2013-04-29 13:03:00,52.0,48.3,30.15,SSE,161,0.0,0.0,87,0.02,CLR,CLR,0.11,WeatherDisplay:10.36,2013-04-29 17:03:00,
2013-04-29 13:08:00,52.2,48.4,30.15,SSE,161,0.0,0.0,87,0.03,RA,RA,0.12,WeatherDisplay:10.36,2013-04-29 17:08:00,
2013-04-29 13:13:00,52.3,48.5,30.14,ESE,115,0.0,0.0,87,0.03,RA,RA,0.12,WeatherDisplay:10.36,2013-04-29 17:13:00,
2013-04-29 13:18:00,52.5,49.0,30.15,ESE,115,0.0,0.0,88,0.03,CLR,CLR,0.12,WeatherDisplay:10.36,2013-04-29 17:18:00,
2013-04-29 13:23:00,52.5,49.0,30.15,ESE,115,0.0,0.0,88,0.03,CLR,CLR,0.12,WeatherDisplay:10.36,2013-04-29 17:23:00,
2013-04-29 13:28:00,52.6,49.4,30.15,ESE,115,0.0,0.0,89,0.02,CLR,CLR,0.12,WeatherDisplay:10.36,2013-04-29 17:28:00,
2013-04-29 13:34:00,52.6,49.1,30.15,ESE,115,0.0,0.0,88,0.02,CLR,CLR,0.12,WeatherDisplay:10.36,2013-04-29 17:34:00,
2013-04-29 13:39:00,52.8,49.6,30.14,SE,127,0.0,0.0,89,0.02,CLR,CLR,0.12,WeatherDisplay:10.36,2013-04-29 17:39:00,
2013-04-29 13:44:00,52.9,49.7,30.15,SE,127,1.0,0.0,89,0.02,CLR,CLR,0.12,WeatherDisplay:10.36,2013-04-29 17:44:00,
2013-04-29 13:49:00,52.8,49.6,30.15,SE,130,0.0,0.0,89,0.01,CLR,CLR,0.12,WeatherDisplay:10.36,2013-04-29 17:49:00,
2013-04-29 13:55:00,52.5,49.0,30.14,ESE,118,1.2,1.2,88,0.01,CLR,CLR,0.12,WeatherDisplay:10.36,2013-04-29 17:55:00,
2013-04-29 14:00:00,52.3,48.9,30.14,ESE,122,0.0,2.0,88,0.00,,,0.12,WeatherDisplay:10.36,2013-04-29 18:00:00,
2013-04-29 14:05:00,52.2,48.8,30.15,ESE,118,0.0,0.0,88,0.00,CLR,CLR,0.12,WeatherDisplay:10.36,2013-04-29 18:05:00,
2013-04-29 14:10:00,52.2,48.8,30.14,ESE,118,0.0,0.0,88,0.00,CLR,CLR,0.12,WeatherDisplay:10.36,2013-04-29 18:10:00,
2013-04-29 14:15:00,52.2,48.8,30.14,ESE,120,0.0,0.0,88,0.01,RA,RA,0.13,WeatherDisplay:10.36,2013-04-29 18:15:00,
2013-04-29 14:20:00,52.2,48.8,30.14,ESE,120,0.0,0.0,88,0.01,RA,RA,0.13,WeatherDisplay:10.36,2013-04-29 18:20:00,
2013-04-29 14:25:00,52.2,48.4,30.14,ESE,120,0.0,0.0,87,0.01,CLR,CLR,0.13,WeatherDisplay:10.36,2013-04-29 18:25:00,
2013-04-29 14:31:00,52.3,48.5,30.14,ESE,120,1.2,0.0,87,0.01,CLR,CLR,0.13,WeatherDisplay:10.36,2013-04-29 18:31:00,
2013-04-29 14:36:00,52.3,48.5,30.14,ESE,120,0.0,0.0,87,0.01,CLR,CLR,0.13,WeatherDisplay:10.36,2013-04-29 18:36:00,
2013-04-29 14:41:00,52.3,48.5,30.14,ESE,120,0.0,0.0,87,0.01,CLR,CLR,0.13,WeatherDisplay:10.36,2013-04-29 18:41:00,
2013-04-29 14:46:00,52.5,48.4,30.14,West,281,0.0,0.0,86,0.01,CLR,CLR,0.13,WeatherDisplay:10.36,2013-04-29 18:46:00,
2013-04-29 14:51:00,52.5,48.4,30.14,West,281,0.0,0.0,86,0.01,CLR,CLR,0.13,WeatherDisplay:10.36,2013-04-29 18:51:00,
2013-04-29 14:56:00,52.5,48.4,30.14,WNW,296,1.2,0.0,86,0.01,CLR,CLR,0.13,WeatherDisplay:10.36,2013-04-29 18:56:00,
2013-04-29 15:02:00,52.5,48.4,30.14,NW,322,0.0,0.0,86,0.01,CLR,CLR,0.13,WeatherDisplay:10.36,2013-04-29 19:02:00,
2013-04-29 15:07:00,52.6,48.8,30.14,South,189,2.0,2.0,87,0.01,CLR,CLR,0.13,WeatherDisplay:10.36,2013-04-29 19:07:00,
2013-04-29 15:12:00,52.6,48.8,30.14,South,189,0.0,0.0,87,0.00,CLR,CLR,0.13,WeatherDisplay:10.36,2013-04-29 19:12:00,
2013-04-29 15:17:00,52.6,48.8,30.13,South,189,0.0,0.0,87,0.00,CLR,CLR,0.13,WeatherDisplay:10.36,2013-04-29 19:17:00,
2013-04-29 15:22:00,52.6,48.8,30.13,South,189,0.0,0.0,87,0.00,CLR,CLR,0.13,WeatherDisplay:10.36,2013-04-29 19:22:00,
2013-04-29 15:27:00,52.6,48.8,30.13,South,189,0.0,0.0,87,0.00,CLR,CLR,0.13,WeatherDisplay:10.36,2013-04-29 19:27:00,
2013-04-29 15:32:00,52.5,48.7,30.13,South,189,0.0,0.0,87,0.00,CLR,CLR,0.13,WeatherDisplay:10.36,2013-04-29 19:32:00,
2013-04-29 15:37:00,52.6,48.8,30.13,South,189,0.0,0.0,87,0.00,CLR,CLR,0.13,WeatherDisplay:10.36,2013-04-29 19:37:00,
2013-04-29 15:42:00,52.5,48.7,30.13,South,189,0.0,0.0,87,0.00,CLR,CLR,0.13,WeatherDisplay:10.36,2013-04-29 19:42:00,
2013-04-29 15:47:00,52.5,48.7,30.12,South,189,0.0,0.0,87,0.00,CLR,CLR,0.13,WeatherDisplay:10.36,2013-04-29 19:47:00,
2013-04-29 15:52:00,52.5,48.4,30.12,South,189,0.0,0.0,86,0.00,CLR,CLR,0.13,WeatherDisplay:10.36,2013-04-29 19:52:00,
2013-04-29 15:58:00,52.6,48.5,30.12,SE,143,0.0,0.0,86,0.00,CLR,CLR,0.13,WeatherDisplay:10.36,2013-04-29 19:58:00,
2013-04-29 16:03:00,52.6,48.2,30.12,SE,143,0.0,0.0,85,0.00,CLR,CLR,0.13,WeatherDisplay:10.36,2013-04-29 20:03:00,
2013-04-29 16:08:00,52.6,48.2,30.12,SE,143,0.0,0.0,85,0.00,CLR,CLR,0.13,WeatherDisplay:10.36,2013-04-29 20:08:00,
2013-04-29 16:13:00,52.8,48.1,30.12,SE,143,0.0,0.0,84,0.00,CLR,CLR,0.13,WeatherDisplay:10.36,2013-04-29 20:13:00,
2013-04-29 16:18:00,52.8,48.1,30.12,SE,143,0.0,0.0,84,0.00,CLR,CLR,0.13,WeatherDisplay:10.36,2013-04-29 20:18:00,
2013-04-29 16:24:00,52.8,48.1,30.11,SE,143,0.0,0.0,84,0.00,CLR,CLR,0.13,WeatherDisplay:10.36,2013-04-29 20:24:00,
2013-04-29 16:29:00,52.9,48.2,30.11,SE,143,0.0,0.0,84,0.00,CLR,CLR,0.13,WeatherDisplay:10.36,2013-04-29 20:29:00,
2013-04-29 16:34:00,53.1,48.4,30.11,SE,143,0.0,0.0,84,0.00,CLR,CLR,0.13,WeatherDisplay:10.36,2013-04-29 20:34:00,
2013-04-29 16:39:00,53.2,48.5,30.11,SE,143,0.0,0.0,84,0.00,CLR,CLR,0.13,WeatherDisplay:10.36,2013-04-29 20:39:00,
2013-04-29 16:44:00,53.2,47.8,30.11,SE,143,0.0,0.0,82,0.00,CLR,CLR,0.13,WeatherDisplay:10.36,2013-04-29 20:44:00,
2013-04-29 16:50:00,53.3,47.6,30.11,SE,143,0.0,0.0,81,0.00,CLR,CLR,0.13,WeatherDisplay:10.36,2013-04-29 20:50:00,
2013-04-29 16:55:00,53.5,47.8,30.12,SE,143,0.0,0.0,81,0.00,CLR,CLR,0.13,WeatherDisplay:10.36,2013-04-29 20:55:00,
2013-04-29 17:00:00,53.5,47.8,30.12,SE,143,0.0,0.0,81,0.00,CLR,CLR,0.13,WeatherDisplay:10.36,2013-04-29 21:00:00,
2013-04-29 17:06:00,53.6,47.6,30.12,SE,143,0.0,0.0,80,0.00,CLR,CLR,0.13,WeatherDisplay:10.36,2013-04-29 21:06:00,
2013-04-29 17:11:00,53.8,47.8,30.12,SE,143,0.0,0.0,80,0.00,CLR,CLR,0.13,WeatherDisplay:10.36,2013-04-29 21:11:00,
2013-04-29 17:16:00,53.8,47.4,30.12,SE,143,0.0,0.0,79,0.00,CLR,CLR,0.13,WeatherDisplay:10.36,2013-04-29 21:16:00,
2013-04-29 17:21:00,53.9,47.5,30.12,SE,143,0.0,0.0,79,0.00,CLR,CLR,0.13,WeatherDisplay:10.36,2013-04-29 21:21:00,
2013-04-29 17:26:00,53.9,47.5,30.11,SE,143,0.0,0.0,79,0.00,CLR,CLR,0.13,WeatherDisplay:10.36,2013-04-29 21:26:00,
2013-04-29 17:31:00,54.1,47.7,30.12,SE,143,0.0,0.0,79,0.00,CLR,CLR,0.13,WeatherDisplay:10.36,2013-04-29 21:31:00,
2013-04-29 17:36:00,54.1,47.7,30.12,SE,143,0.0,0.0,79,0.00,CLR,CLR,0.13,WeatherDisplay:10.36,2013-04-29 21:36:00,
2013-04-29 17:41:00,54.1,47.4,30.12,SE,143,0.0,0.0,78,0.00,CLR,CLR,0.13,WeatherDisplay:10.36,2013-04-29 21:41:00,
2013-04-29 17:46:00,54.1,47.0,30.12,SE,143,0.0,0.0,77,0.00,CLR,CLR,0.13,WeatherDisplay:10.36,2013-04-29 21:46:00,
2013-04-29 17:51:00,54.2,47.1,30.12,SE,143,0.0,0.0,77,0.00,CLR,CLR,0.13,WeatherDisplay:10.36,2013-04-29 21:51:00,
2013-04-29 17:56:00,54.4,47.0,30.12,SE,143,0.0,0.0,76,0.00,CLR,CLR,0.13,WeatherDisplay:10.36,2013-04-29 21:56:00,
2013-04-29 18:02:00,54.5,47.1,30.12,SE,143,0.0,0.0,76,0.00,CLR,CLR,0.13,WeatherDisplay:10.36,2013-04-29 22:02:00,
2013-04-29 18:07:00,54.5,47.4,30.12,SE,143,0.0,0.0,77,0.00,CLR,CLR,0.13,WeatherDisplay:10.36,2013-04-29 22:07:00,
2013-04-29 18:12:00,54.5,47.4,30.12,SE,143,0.0,0.0,77,0.00,CLR,CLR,0.13,WeatherDisplay:10.36,2013-04-29 22:12:00,
2013-04-29 18:17:00,54.7,47.6,30.12,SE,143,0.0,0.0,77,0.00,CLR,CLR,0.13,WeatherDisplay:10.36,2013-04-29 22:17:00,
2013-04-29 18:22:00,54.7,48.0,30.11,SE,143,0.0,0.0,78,0.00,CLR,CLR,0.13,WeatherDisplay:10.36,2013-04-29 22:22:00,
2013-04-29 18:27:00,54.7,47.6,30.11,SE,143,0.0,0.0,77,0.00,CLR,CLR,0.13,WeatherDisplay:10.36,2013-04-29 22:27:00,
2013-04-29 18:32:00,54.7,47.6,30.11,SE,143,0.0,0.0,77,0.00,CLR,CLR,0.13,WeatherDisplay:10.36,2013-04-29 22:32:00,
2013-04-29 18:37:00,54.8,47.4,30.11,SE,143,0.0,0.0,76,0.00,CLR,CLR,0.13,WeatherDisplay:10.36,2013-04-29 22:37:00,
2013-04-29 18:43:00,54.8,47.4,30.11,SE,143,0.0,0.0,76,0.00,CLR,CLR,0.13,WeatherDisplay:10.36,2013-04-29 22:43:00,
2013-04-29 18:48:00,55.0,47.6,30.11,SE,143,0.0,0.0,76,0.00,CLR,CLR,0.13,WeatherDisplay:10.36,2013-04-29 22:48:00,
2013-04-29 18:53:00,54.8,46.3,30.11,SE,143,0.0,0.0,73,0.00,CLR,CLR,0.13,WeatherDisplay:10.36,2013-04-29 22:53:00,
2013-04-29 18:58:00,55.0,46.5,30.11,SE,143,0.0,0.0,73,0.00,CLR,CLR,0.13,WeatherDisplay:10.36,2013-04-29 22:58:00,
2013-04-29 19:04:00,55.0,46.9,30.11,SE,143,0.0,0.0,74,0.00,CLR,CLR,0.13,WeatherDisplay:10.36,2013-04-29 23:04:00,
2013-04-29 19:09:00,54.8,45.9,30.11,SE,143,1.2,0.0,72,0.00,CLR,CLR,0.13,WeatherDisplay:10.36,2013-04-29 23:09:00,
2013-04-29 19:14:00,55.0,45.8,30.11,SE,143,0.0,0.0,71,0.00,CLR,CLR,0.13,WeatherDisplay:10.36,2013-04-29 23:14:00,
2013-04-29 19:19:00,54.8,45.6,30.12,SE,143,0.0,0.0,71,0.00,CLR,CLR,0.13,WeatherDisplay:10.36,2013-04-29 23:19:00,
2013-04-29 19:24:00,54.8,45.2,30.12,SE,143,0.0,0.0,70,0.00,CLR,CLR,0.13,WeatherDisplay:10.36,2013-04-29 23:24:00,
2013-04-29 19:29:00,54.8,45.2,30.12,South,169,4.0,4.0,70,0.00,CLR,CLR,0.13,WeatherDisplay:10.36,2013-04-29 23:29:00,
2013-04-29 19:34:00,54.8,45.2,30.12,West,264,4.0,4.0,70,0.00,CLR,CLR,0.13,WeatherDisplay:10.36,2013-04-29 23:34:00,
2013-04-29 19:40:00,54.8,45.2,30.12,WNW,285,2.3,2.3,70,0.00,CLR,CLR,0.13,WeatherDisplay:10.36,2013-04-29 23:40:00,
2013-04-29 19:45:00,54.7,45.1,30.12,SSW,207,0.0,1.0,70,0.00,CLR,CLR,0.13,WeatherDisplay:10.36,2013-04-29 23:45:00,
2013-04-29 19:50:00,54.5,44.9,30.12,SE,137,1.0,2.0,70,0.00,CLR,CLR,0.13,WeatherDisplay:10.36,2013-04-29 23:50:00,
2013-04-29 19:55:00,54.4,45.9,30.12,SSE,165,1.2,0.0,73,0.00,CLR,CLR,0.13,WeatherDisplay:10.36,2013-04-29 23:55:00,
2013-04-29 20:00:00,54.2,45.7,30.12,ESE,120,2.3,2.3,73,0.00,CLR,CLR,0.13,WeatherDisplay:10.36,2013-04-30 00:00:00,
2013-04-29 20:05:00,54.1,46.0,30.13,SE,146,1.0,0.0,74,0.00,CLR,CLR,0.13,WeatherDisplay:10.36,2013-04-30 00:05:00,
2013-04-29 20:10:00,53.9,46.2,30.13,SSE,166,2.3,0.0,75,0.00,CLR,CLR,0.13,WeatherDisplay:10.36,2013-04-30 00:10:00,
2013-04-29 20:15:00,53.9,46.2,30.14,South,172,0.0,0.0,75,0.00,CLR,CLR,0.13,WeatherDisplay:10.36,2013-04-30 00:15:00,
2013-04-29 20:21:00,53.8,46.4,30.14,South,172,0.0,0.0,76,0.00,CLR,CLR,0.13,WeatherDisplay:10.36,2013-04-30 00:21:00,
2013-04-29 20:26:00,53.6,46.2,30.14,South,172,0.0,0.0,76,0.00,CLR,CLR,0.13,WeatherDisplay:10.36,2013-04-30 00:26:00,
2013-04-29 20:31:00,53.6,46.2,30.14,South,172,0.0,0.0,76,0.00,CLR,CLR,0.13,WeatherDisplay:10.36,2013-04-30 00:31:00,
2013-04-29 20:36:00,53.5,46.5,30.14,South,172,0.0,0.0,77,0.00,CLR,CLR,0.13,WeatherDisplay:10.36,2013-04-30 00:36:00,
2013-04-29 20:42:00,53.5,46.5,30.14,SW,224,1.2,0.0,77,0.00,CLR,CLR,0.13,WeatherDisplay:10.36,2013-04-30 00:42:00,
2013-04-29 20:47:00,53.2,46.5,30.15,ENE,69,0.0,0.0,78,0.00,CLR,CLR,0.13,WeatherDisplay:10.36,2013-04-30 00:47:00,
2013-04-29 20:52:00,53.1,46.8,30.15,ENE,67,0.0,0.0,79,0.00,CLR,CLR,0.13,WeatherDisplay:10.36,2013-04-30 00:52:00,
2013-04-29 20:57:00,52.9,46.9,30.15,ENE,68,0.0,0.0,80,0.00,CLR,CLR,0.13,WeatherDisplay:10.36,2013-04-30 00:57:00,
2013-04-29 21:02:00,52.8,47.1,30.15,ENE,69,0.0,0.0,81,0.00,CLR,CLR,0.13,WeatherDisplay:10.36,2013-04-30 01:02:00,
2013-04-29 21:07:00,52.8,47.1,30.15,ENE,69,0.0,0.0,81,0.00,CLR,CLR,0.13,WeatherDisplay:10.36,2013-04-30 01:07:00,
2013-04-29 21:12:00,52.8,47.5,30.15,ENE,69,0.0,0.0,82,0.00,CLR,CLR,0.13,WeatherDisplay:10.36,2013-04-30 01:12:00,
2013-04-29 21:17:00,52.8,47.5,30.15,ENE,69,0.0,0.0,82,0.00,CLR,CLR,0.13,WeatherDisplay:10.36,2013-04-30 01:17:00,
2013-04-29 21:22:00,52.8,47.5,30.15,ENE,69,0.0,0.0,82,0.00,CLR,CLR,0.13,WeatherDisplay:10.36,2013-04-30 01:22:00,
2013-04-29 21:27:00,52.8,47.5,30.15,ENE,69,0.0,0.0,82,0.00,CLR,CLR,0.13,WeatherDisplay:10.36,2013-04-30 01:27:00,
2013-04-29 21:33:00,52.8,47.5,30.15,ENE,69,0.0,0.0,82,0.00,CLR,CLR,0.13,WeatherDisplay:10.36,2013-04-30 01:33:00,
2013-04-29 21:38:00,52.8,47.5,30.16,ENE,69,0.0,0.0,82,0.00,CLR,CLR,0.13,WeatherDisplay:10.36,2013-04-30 01:38:00,
2013-04-29 21:43:00,52.8,47.5,30.16,ENE,69,0.0,0.0,82,0.00,CLR,CLR,0.13,WeatherDisplay:10.36,2013-04-30 01:43:00,
2013-04-29 21:48:00,52.8,47.8,30.15,ENE,69,0.0,0.0,83,0.00,CLR,CLR,0.13,WeatherDisplay:10.36,2013-04-30 01:48:00,
2013-04-29 21:53:00,52.8,47.5,30.16,ENE,69,0.0,0.0,82,0.00,CLR,CLR,0.13,WeatherDisplay:10.36,2013-04-30 01:53:00,
2013-04-29 21:58:00,52.8,47.5,30.16,ENE,69,0.0,0.0,82,0.00,CLR,CLR,0.13,WeatherDisplay:10.36,2013-04-30 01:58:00,
2013-04-29 22:03:00,52.9,47.6,30.16,ENE,69,0.0,0.0,82,0.00,CLR,CLR,0.13,WeatherDisplay:10.36,2013-04-30 02:03:00,
2013-04-29 22:09:00,52.9,47.2,30.16,ENE,69,0.0,0.4,81,0.00,CLR,CLR,0.13,WeatherDisplay:10.36,2013-04-30 02:09:00,
2013-04-29 22:14:00,53.2,46.9,30.15,South,190,3.5,3.5,79,0.00,CLR,CLR,0.13,WeatherDisplay:10.36,2013-04-30 02:14:00,
2013-04-29 22:19:00,53.3,47.0,30.16,South,181,0.0,0.0,79,0.00,CLR,CLR,0.13,WeatherDisplay:10.36,2013-04-30 02:19:00,
2013-04-29 22:24:00,53.3,47.0,30.16,South,181,0.0,0.2,79,0.00,CLR,CLR,0.13,WeatherDisplay:10.36,2013-04-30 02:24:00,
2013-04-29 22:29:00,53.3,47.3,30.16,South,181,0.0,0.0,80,0.00,CLR,CLR,0.13,WeatherDisplay:10.36,2013-04-30 02:29:00,
2013-04-29 22:34:00,53.2,47.5,30.15,South,181,0.0,0.0,81,0.00,CLR,CLR,0.13,WeatherDisplay:10.36,2013-04-30 02:34:00,
2013-04-29 22:39:00,53.2,47.8,30.15,South,181,0.0,0.0,82,0.00,CLR,CLR,0.13,WeatherDisplay:10.36,2013-04-30 02:39:00,
2013-04-29 22:45:00,53.1,47.7,30.15,South,181,0.0,0.0,82,0.00,CLR,CLR,0.13,WeatherDisplay:10.36,2013-04-30 02:45:00,
2013-04-29 22:50:00,52.9,47.6,30.15,South,181,0.0,0.0,82,0.00,CLR,CLR,0.13,WeatherDisplay:10.36,2013-04-30 02:50:00,
2013-04-29 22:55:00,52.9,47.6,30.15,South,181,0.0,0.0,82,0.00,CLR,CLR,0.13,WeatherDisplay:10.36,2013-04-30 02:55:00,
2013-04-29 23:00:00,52.9,47.2,30.15,South,181,0.0,0.0,81,0.00,CLR,CLR,0.13,WeatherDisplay:10.36,2013-04-30 03:00:00,
2013-04-29 23:05:00,52.9,46.9,30.15,South,181,0.0,0.0,80,0.00,CLR,CLR,0.13,WeatherDisplay:10.36,2013-04-30 03:05:00,
2013-04-29 23:10:00,53.1,47.1,30.15,South,181,0.0,0.0,80,0.00,CLR,CLR,0.13,WeatherDisplay:10.36,2013-04-30 03:10:00,
2013-04-29 23:16:00,53.1,47.1,30.15,South,181,0.0,0.0,80,0.00,CLR,CLR,0.13,WeatherDisplay:10.36,2013-04-30 03:16:00,
2013-04-29 23:21:00,53.1,47.1,30.15,South,181,0.0,0.0,80,0.00,CLR,CLR,0.13,WeatherDisplay:10.36,2013-04-30 03:21:00,
2013-04-29 23:26:00,53.1,47.1,30.15,South,181,0.0,0.0,80,0.00,CLR,CLR,0.13,WeatherDisplay:10.36,2013-04-30 03:26:00,
2013-04-29 23:31:00,53.1,47.1,30.15,South,181,0.0,0.0,80,0.00,CLR,CLR,0.13,WeatherDisplay:10.36,2013-04-30 03:31:00,
2013-04-29 23:36:00,53.1,47.1,30.15,South,181,0.0,0.0,80,0.00,CLR,CLR,0.13,WeatherDisplay:10.36,2013-04-30 03:36:00,
2013-04-29 23:41:00,53.1,47.1,30.15,South,181,0.0,0.0,80,0.00,CLR,CLR,0.13,WeatherDisplay:10.36,2013-04-30 03:41:00,
2013-04-29 23:47:00,53.1,47.1,30.15,South,181,0.0,0.0,80,0.00,CLR,CLR,0.13,WeatherDisplay:10.36,2013-04-30 03:47:00,
2013-04-29 23:52:00,53.1,47.1,30.15,South,181,0.0,0.0,80,0.00,CLR,CLR,0.13,WeatherDisplay:10.36,2013-04-30 03:52:00,
2013-04-29 23:57:00,53.1,47.1,30.15,South,181,0.0,0.0,80,0.00,CLR,CLR,0.13,WeatherDisplay:10.36,2013-04-30 03:57:00,